CST,Max TemperatureF,Mean TemperatureF,Min TemperatureF,Max Dew PointF,MeanDew PointF,Min DewpointF,Max Humidity, Mean Humidity, Min Humidity, Max Sea Level PressureIn, Mean Sea Level PressureIn, Min Sea Level PressureIn, Max VisibilityMiles, Mean VisibilityMiles, Min VisibilityMiles, Max Wind SpeedMPH, Mean Wind SpeedMPH, Max Gust SpeedMPH,PrecipitationIn, CloudCover, Events, WindDirDegrees
2012-11-1,56,45,34,39,34,28,85,66,46,30.02,29.97,29.94,10,8,2,20,9,24,0.00,2,,322
2012-11-2,47,40,32,31,28,26,78,64,49,30.12,30.07,30.04,10,10,10,15,6,20,0.00,1,,79
2012-11-3,52,43,34,32,30,27,76,57,38,30.22,30.18,30.12,10,10,5,8,2,10,0.00,4,,38
2012-11-4,48,43,38,40,36,31,89,80,70,30.23,30.16,30.09,9,7,4,14,6,17,0.11,8,Rain,125
2012-11-5,45,42,39,41,37,36,100,85,70,30.18,30.12,30.06,7,4,3,15,7,20,0.11,8,Rain,123
2012-11-6,51,46,40,41,38,33,93,77,60,30.05,29.94,29.88,10,7,2,26,15,36,0.04,8,Rain,275
2012-11-7,45,38,30,37,33,28,92,77,62,30.16,30.11,30.00,10,10,9,16,7,30,0.01,5,,358
2012-11-8,60,45,30,38,34,28,92,67,42,30.12,30.01,29.92,10,10,9,18,8,24,0.00,0,,142
2012-11-9,59,48,37,48,42,35,92,77,61,29.95,29.88,29.78,10,10,9,15,7,21,0.00,3,,106
2012-11-10,77,65,52,57,53,48,100,74,47,29.77,29.64,29.56,10,10,7,29,15,38,0.00,1,,165
2012-11-11,68,45,22,57,30,15,100,79,58,30.12,29.83,29.62,10,7,2,29,16,33,0.71,7,Rain,299
2012-11-12,35,28,20,21,17,15,84,64,44,30.41,30.25,30.14,10,10,10,28,13,33,0.00,0,,269
2012-11-13,48,33,17,31,24,15,92,67,42,30.46,30.39,30.34,10,10,10,16,7,22,0.00,2,,158
2012-11-14,56,43,30,33,30,27,89,62,35,30.36,30.30,30.25,10,10,10,22,7,25,0.00,0,,175
2012-11-15,59,46,33,36,32,29,82,61,40,30.43,30.31,30.24,10,10,10,16,8,20,0.00,2,,313
2012-11-16,53,39,24,34,28,22,89,69,48,30.49,30.44,30.39,10,10,7,13,5,16,0.00,0,,114
2012-11-17,61,45,28,38,32,28,100,68,36,30.40,30.33,30.27,10,8,5,22,10,30,0.00,0,,151
2012-11-18,60,49,37,37,33,30,76,56,36,30.26,30.19,30.14,10,10,10,21,11,24,T,4,Rain,153
2012-11-19,60,48,36,46,41,34,92,77,62,30.14,30.07,30.01,10,9,6,16,7,22,0.12,2,Rain,170
2012-11-20,60,46,32,42,36,31,100,76,51,30.20,30.16,30.06,10,6,3,13,5,16,0.00,0,,321
2012-11-21,71,51,30,46,38,30,100,71,41,30.15,30.05,29.86,10,7,2,28,11,35,0.00,0,,168
2012-11-22,66,51,36,47,37,22,76,57,37,30.12,29.88,29.71,10,10,10,33,17,40,0.00,1,,256
2012-11-23,36,27,18,20,14,12,73,59,45,30.43,30.34,30.14,10,10,10,32,19,43,0.00,3,,315
2012-11-24,33,25,16,22,16,11,80,65,49,30.40,30.16,29.87,10,10,10,16,7,20,0.00,1,,171
2012-11-25,38,34,29,26,23,21,72,64,56,30.19,30.01,29.86,10,10,10,18,9,22,0.00,3,,341
2012-11-26,32,21,10,22,12,6,76,59,42,30.48,30.38,30.20,10,10,10,22,9,25,0.00,4,,343
2012-11-27,36,23,9,18,12,6,84,64,43,30.46,30.35,30.23,10,10,9,8,8,10,0.00,1,,224
2012-11-28,45,30,14,25,21,12,96,68,40,30.45,30.31,30.16,10,9,4,13,5,15,0.00,0,,191
2012-11-29,50,37,24,34,28,22,92,72,52,30.15,30.05,29.99,10,8,5,10,3,12,0.00,0,,152
2012-11-30,51,38,24,36,31,23,100,78,56,30.11,30.06,29.99,7,5,3,10,4,12,0.00,0,,72